Simultaneous Nadir Overpasses (SNOs) Predictions

Prediction of SNOs between FY3D and LANDSAT-8 Satellite Orbit:

Table of predicted SNOs for the next 14.0 days since TLE Epoch: 12/4/2021
Index Date (FY3D) Time (FY3D) Lat,Lon (FY3D) SZA (FY3D ) Date (LANDSAT-8) Time (LANDSAT-8) Lat,Lon (LANDSAT-8) SZA (LANDSAT-8 ) Distance(km) Time Diff (sec)
1 12/04/2021 06:01:47 -71.52, -92.07 86.32 12/04/2021 06:02:43 -71.52, -92.08 86.31 0.71 56
2 12/04/2021 06:52:32 71.40, 75.44 93.58 12/04/2021 06:52:10 71.43, 75.41 93.60 3.09 22
3 12/04/2021 07:43:00 -70.56,-115.81 87.26 12/04/2021 07:41:53 -70.61,-118.24 87.23 90.11 67
4 12/06/2021 21:28:59 71.52,-143.86 94.01 12/06/2021 21:29:44 71.53,-143.82 94.02 1.81 45
5 12/06/2021 22:19:41 -71.39, 23.68 86.11 12/06/2021 22:19:14 -71.42, 23.63 86.09 3.32 27
6 12/09/2021 12:56:08 -71.51, 164.40 85.73 12/09/2021 12:56:48 -71.52, 164.39 85.72 1.18 40
7 12/09/2021 13:46:53 71.40, -28.12 94.18 12/09/2021 13:46:15 71.41, -28.13 94.18 1.07 38
8 12/12/2021 04:23:19 71.53, 112.58 94.52 12/12/2021 04:23:48 71.50, 112.61 94.49 3.25 29
9 12/12/2021 05:14:01 -71.39, -79.86 85.63 12/12/2021 05:13:18 -71.39, -79.93 85.62 2.69 43
10 12/14/2021 19:50:28 -71.50, 60.85 85.34 12/14/2021 19:50:51 -71.53, 60.90 85.32 3.31 23
11 12/14/2021 20:41:13 71.42,-131.70 94.58 12/14/2021 20:40:18 71.42,-131.64 94.58 2.10 55
12 12/17/2021 10:27:07 -72.24,-159.62 84.49 12/17/2021 10:28:15 -72.14,-157.45 84.59 74.63 68
13 12/17/2021 11:17:39 71.50, 9.08 94.77 12/17/2021 11:17:52 71.50, 9.09 94.76 0.30 13
14 12/17/2021 12:08:22 -71.39, 176.58 85.34 12/17/2021 12:07:22 -71.39, 176.55 85.34 0.99 60



Historial Predications of SNOs between FY3D and LANDSAT-8
